Time,TemperatureF,DewpointF,PressureIn,WindDirection,WindDirectionDegrees,WindSpeedMPH,WindSpeedGustMPH,Humidity,HourlyPrecipIn,Conditions,Clouds,dailyrainin,SoftwareType,DateUTC
2013-10-08 00:11:00,47.2,46.0,30.08,East,84,0.0,0.0,95,0.00,,,0.00,weatherlink.com 1.10,2013-10-08 04:11:00,
2013-10-08 00:26:00,47.0,46.0,30.08,East,84,0.0,0.0,95,0.00,,,0.00,weatherlink.com 1.10,2013-10-08 04:26:00,
2013-10-08 00:41:00,46.8,46.0,30.08,East,84,0.0,0.0,95,0.00,,,0.00,weatherlink.com 1.10,2013-10-08 04:41:00,
2013-10-08 00:56:00,46.8,46.0,30.08,East,84,0.0,0.0,96,0.00,,,0.00,weatherlink.com 1.10,2013-10-08 04:56:00,
2013-10-08 01:11:00,46.6,46.0,30.09,East,84,0.0,0.0,96,0.00,,,0.00,weatherlink.com 1.10,2013-10-08 05:11:00,
2013-10-08 01:26:00,46.4,45.0,30.09,East,85,0.0,0.0,96,0.00,,,0.00,weatherlink.com 1.10,2013-10-08 05:26:00,
2013-10-08 01:41:00,46.1,45.0,30.10,East,85,0.0,0.0,96,0.00,,,0.00,weatherlink.com 1.10,2013-10-08 05:41:00,
2013-10-08 01:56:00,46.0,45.0,30.10,East,84,0.0,0.0,96,0.00,,,0.00,weatherlink.com 1.10,2013-10-08 05:56:00,
2013-10-08 02:11:00,45.9,45.0,30.10,East,84,0.0,0.0,96,0.00,,,0.00,weatherlink.com 1.10,2013-10-08 06:11:00,
2013-10-08 02:26:00,45.6,45.0,30.11,East,85,0.0,0.0,96,0.00,,,0.00,weatherlink.com 1.10,2013-10-08 06:26:00,
2013-10-08 02:41:00,45.8,45.0,30.11,East,84,0.0,0.0,96,0.00,,,0.00,weatherlink.com 1.10,2013-10-08 06:41:00,
2013-10-08 02:56:00,45.4,44.0,30.12,East,84,0.0,0.0,96,0.00,,,0.00,weatherlink.com 1.10,2013-10-08 06:56:00,
2013-10-08 03:11:00,45.4,44.0,30.12,East,84,0.0,0.0,96,0.00,,,0.00,weatherlink.com 1.10,2013-10-08 07:11:00,
2013-10-08 03:26:00,45.3,44.0,30.12,East,85,0.0,0.0,96,0.00,,,0.00,weatherlink.com 1.10,2013-10-08 07:26:00,
2013-10-08 03:41:00,45.3,44.0,30.12,East,84,0.0,0.0,96,0.00,,,0.00,weatherlink.com 1.10,2013-10-08 07:41:00,
2013-10-08 03:56:00,45.2,44.0,30.12,East,84,0.0,0.0,96,0.00,,,0.00,weatherlink.com 1.10,2013-10-08 07:56:00,
2013-10-08 04:11:00,45.2,44.0,30.13,East,84,0.0,0.0,97,0.00,,,0.00,weatherlink.com 1.10,2013-10-08 08:11:00,
2013-10-08 04:26:00,45.4,45.0,30.13,East,84,0.0,0.0,97,0.00,,,0.00,weatherlink.com 1.10,2013-10-08 08:26:00,
2013-10-08 04:41:00,45.3,45.0,30.13,East,84,0.0,0.0,97,0.00,,,0.00,weatherlink.com 1.10,2013-10-08 08:41:00,
2013-10-08 04:56:00,45.1,44.0,30.14,East,85,0.0,0.0,97,0.00,,,0.00,weatherlink.com 1.10,2013-10-08 08:56:00,
2013-10-08 05:11:00,44.8,44.0,30.14,East,84,0.0,0.0,97,0.00,,,0.00,weatherlink.com 1.10,2013-10-08 09:11:00,
2013-10-08 05:26:00,44.8,44.0,30.14,East,84,0.0,0.0,97,0.00,,,0.00,weatherlink.com 1.10,2013-10-08 09:26:00,
2013-10-08 05:41:00,44.8,44.0,30.15,East,84,0.0,0.0,97,0.00,,,0.00,weatherlink.com 1.10,2013-10-08 09:41:00,
2013-10-08 05:56:00,44.7,44.0,30.15,East,84,0.0,0.0,97,0.00,,,0.00,weatherlink.com 1.10,2013-10-08 09:56:00,
2013-10-08 06:11:00,44.6,44.0,30.15,East,84,0.0,0.0,97,0.00,,,0.00,weatherlink.com 1.10,2013-10-08 10:11:00,
2013-10-08 06:26:00,44.5,44.0,30.16,East,85,0.0,0.0,97,0.00,,,0.00,weatherlink.com 1.10,2013-10-08 10:26:00,
2013-10-08 06:41:00,44.4,44.0,30.17,East,85,0.0,0.0,97,0.00,,,0.00,weatherlink.com 1.10,2013-10-08 10:41:00,
2013-10-08 06:56:00,44.3,44.0,30.17,East,84,0.0,0.0,97,0.00,,,0.00,weatherlink.com 1.10,2013-10-08 10:56:00,
2013-10-08 07:11:00,44.0,43.0,30.18,East,84,0.0,0.0,97,0.00,,,0.00,weatherlink.com 1.10,2013-10-08 11:11:00,
2013-10-08 07:26:00,43.8,43.0,30.18,East,84,0.0,0.0,97,0.00,,,0.00,weatherlink.com 1.10,2013-10-08 11:26:00,
2013-10-08 07:41:00,43.7,43.0,30.18,East,84,0.0,0.0,97,0.00,,,0.00,weatherlink.com 1.10,2013-10-08 11:41:00,
2013-10-08 07:57:00,43.5,43.0,30.18,East,84,0.0,0.0,97,0.00,,,0.00,weatherlink.com 1.10,2013-10-08 11:57:00,
2013-10-08 08:12:00,43.7,43.0,30.19,East,82,0.0,0.0,97,0.00,,,0.00,weatherlink.com 1.10,2013-10-08 12:12:00,
2013-10-08 08:27:00,43.7,43.0,30.19,East,82,0.0,0.0,97,0.00,,,0.00,weatherlink.com 1.10,2013-10-08 12:27:00,
2013-10-08 08:42:00,43.6,43.0,30.19,East,82,0.0,0.0,97,0.00,,,0.00,weatherlink.com 1.10,2013-10-08 12:42:00,
2013-10-08 08:57:00,43.8,43.0,30.20,East,82,0.0,0.0,97,0.00,,,0.00,weatherlink.com 1.10,2013-10-08 12:57:00,
2013-10-08 09:12:00,44.5,44.0,30.20,East,82,0.0,0.0,98,0.00,,,0.00,weatherlink.com 1.10,2013-10-08 13:12:00,
2013-10-08 09:27:00,45.3,45.0,30.21,East,82,0.0,0.0,98,0.00,,,0.00,weatherlink.com 1.10,2013-10-08 13:27:00,
2013-10-08 09:42:00,46.6,46.0,30.21,NE,54,0.0,1.0,98,0.00,,,0.00,weatherlink.com 1.10,2013-10-08 13:42:00,
2013-10-08 09:57:00,48.5,48.0,30.21,SE,124,0.0,1.0,98,0.00,,,0.00,weatherlink.com 1.10,2013-10-08 13:57:00,
2013-10-08 10:12:00,50.6,49.0,30.21,ESE,122,0.0,0.0,93,0.00,,,0.00,weatherlink.com 1.10,2013-10-08 14:12:00,
2013-10-08 10:27:00,53.1,48.0,30.21,NE,44,0.0,1.0,83,0.00,,,0.00,weatherlink.com 1.10,2013-10-08 14:27:00,
2013-10-08 10:42:00,55.3,50.0,30.22,ESE,118,0.0,1.0,81,0.00,,,0.00,weatherlink.com 1.10,2013-10-08 14:42:00,
2013-10-08 10:57:00,57.7,49.0,30.21,SE,131,0.0,4.0,72,0.00,,,0.00,weatherlink.com 1.10,2013-10-08 14:57:00,
2013-10-08 11:12:00,60.1,50.0,30.21,NE,53,0.0,3.0,69,0.00,,,0.00,weatherlink.com 1.10,2013-10-08 15:12:00,
2013-10-08 11:27:00,61.8,50.0,30.21,South,191,0.0,4.0,65,0.00,,,0.00,weatherlink.com 1.10,2013-10-08 15:27:00,
2013-10-08 11:42:00,62.9,49.0,30.22,SE,135,1.0,3.0,60,0.00,,,0.00,weatherlink.com 1.10,2013-10-08 15:42:00,
2013-10-08 11:57:00,63.8,50.0,30.21,SE,132,0.0,3.0,61,0.00,,,0.00,weatherlink.com 1.10,2013-10-08 15:57:00,
2013-10-08 12:12:00,63.8,49.0,30.21,SE,139,1.0,3.0,58,0.00,,,0.00,weatherlink.com 1.10,2013-10-08 16:12:00,
2013-10-08 12:27:00,64.1,51.0,30.20,SE,125,2.0,4.0,62,0.00,,,0.00,weatherlink.com 1.10,2013-10-08 16:27:00,
2013-10-08 12:42:00,64.6,49.0,30.20,SE,143,1.0,4.0,58,0.00,,,0.00,weatherlink.com 1.10,2013-10-08 16:42:00,
2013-10-08 12:58:00,65.0,50.0,30.20,SE,132,0.0,2.0,59,0.00,,,0.00,weatherlink.com 1.10,2013-10-08 16:58:00,
2013-10-08 13:13:00,65.7,51.0,30.19,NE,39,0.0,3.0,60,0.00,,,0.00,weatherlink.com 1.10,2013-10-08 17:13:00,
2013-10-08 13:28:00,66.4,51.0,30.19,NW,314,0.0,2.0,59,0.00,,,0.00,weatherlink.com 1.10,2013-10-08 17:28:00,
2013-10-08 13:43:00,66.6,51.0,30.18,WSW,240,0.0,3.0,57,0.00,,,0.00,weatherlink.com 1.10,2013-10-08 17:43:00,
2013-10-08 13:58:00,67.1,52.0,30.18,North,5,1.0,2.0,58,0.00,,,0.00,weatherlink.com 1.10,2013-10-08 17:58:00,
2013-10-08 14:13:00,67.3,53.0,30.17,ESE,122,0.0,4.0,61,0.00,,,0.00,weatherlink.com 1.10,2013-10-08 18:13:00,
2013-10-08 14:28:00,67.7,52.0,30.17,ESE,119,1.0,3.0,57,0.00,,,0.00,weatherlink.com 1.10,2013-10-08 18:28:00,
2013-10-08 14:43:00,67.6,52.0,30.16,SSE,147,0.0,2.0,58,0.00,,,0.00,weatherlink.com 1.10,2013-10-08 18:43:00,
2013-10-08 14:58:00,67.5,53.0,30.16,NW,326,0.0,1.0,60,0.00,,,0.00,weatherlink.com 1.10,2013-10-08 18:58:00,
2013-10-08 15:13:00,67.6,53.0,30.16,SE,136,0.0,3.0,60,0.00,,,0.00,weatherlink.com 1.10,2013-10-08 19:13:00,
2013-10-08 15:28:00,67.8,53.0,30.16,SE,132,0.0,2.0,60,0.00,,,0.00,weatherlink.com 1.10,2013-10-08 19:28:00,
2013-10-08 15:43:00,67.9,54.0,30.16,WNW,288,0.0,0.0,61,0.00,,,0.00,weatherlink.com 1.10,2013-10-08 19:43:00,
2013-10-08 15:58:00,68.1,52.0,30.16,WSW,257,0.0,2.0,56,0.00,,,0.00,weatherlink.com 1.10,2013-10-08 19:58:00,
2013-10-08 16:13:00,67.9,54.0,30.15,NE,44,0.0,0.0,62,0.00,,,0.00,weatherlink.com 1.10,2013-10-08 20:13:00,
2013-10-08 16:28:00,67.9,54.0,30.15,SE,143,0.0,0.0,61,0.00,,,0.00,weatherlink.com 1.10,2013-10-08 20:28:00,
2013-10-08 16:43:00,67.9,54.0,30.16,SE,125,0.0,2.0,61,0.00,,,0.00,weatherlink.com 1.10,2013-10-08 20:43:00,
2013-10-08 16:58:00,68.0,52.0,30.15,NW,305,0.0,4.0,57,0.00,,,0.00,weatherlink.com 1.10,2013-10-08 20:58:00,
2013-10-08 17:13:00,67.9,52.0,30.15,SE,141,0.0,3.0,58,0.00,,,0.00,weatherlink.com 1.10,2013-10-08 21:13:00,
2013-10-08 17:28:00,67.8,52.0,30.15,ESE,122,0.0,1.0,58,0.00,,,0.00,weatherlink.com 1.10,2013-10-08 21:28:00,
2013-10-08 17:43:00,67.3,52.0,30.15,ENE,72,0.0,0.0,59,0.00,,,0.00,weatherlink.com 1.10,2013-10-08 21:43:00,
2013-10-08 17:58:00,66.9,52.0,30.16,East,82,0.0,0.0,60,0.00,,,0.00,weatherlink.com 1.10,2013-10-08 21:58:00,
2013-10-08 18:13:00,66.4,53.0,30.16,East,95,0.0,1.0,62,0.00,,,0.00,weatherlink.com 1.10,2013-10-08 22:13:00,
2013-10-08 18:28:00,65.8,52.0,30.15,East,94,0.0,0.0,62,0.00,,,0.00,weatherlink.com 1.10,2013-10-08 22:28:00,
2013-10-08 18:43:00,65.2,52.0,30.16,East,93,0.0,0.0,63,0.00,,,0.00,weatherlink.com 1.10,2013-10-08 22:43:00,
2013-10-08 18:58:00,64.4,52.0,30.16,East,94,0.0,0.0,65,0.00,,,0.00,weatherlink.com 1.10,2013-10-08 22:58:00,
2013-10-08 19:13:00,63.3,52.0,30.16,East,93,0.0,0.0,67,0.00,,,0.00,weatherlink.com 1.10,2013-10-08 23:13:00,
2013-10-08 19:28:00,62.0,53.0,30.16,East,95,0.0,0.0,72,0.00,,,0.00,weatherlink.com 1.10,2013-10-08 23:28:00,
2013-10-08 19:43:00,61.2,52.0,30.16,East,95,0.0,0.0,72,0.00,,,0.00,weatherlink.com 1.10,2013-10-08 23:43:00,
2013-10-08 19:58:00,60.7,52.0,30.17,ESE,106,0.0,0.0,72,0.00,,,0.00,weatherlink.com 1.10,2013-10-08 23:58:00,
2013-10-08 20:13:00,60.4,52.0,30.17,ESE,107,0.0,0.0,73,0.00,,,0.00,weatherlink.com 1.10,2013-10-09 00:13:00,
2013-10-08 20:28:00,60.2,51.0,30.17,ESE,120,0.0,0.0,72,0.00,,,0.00,weatherlink.com 1.10,2013-10-09 00:28:00,
2013-10-08 20:43:00,60.1,51.0,30.17,ESE,120,0.0,0.0,71,0.00,,,0.00,weatherlink.com 1.10,2013-10-09 00:43:00,
2013-10-08 20:58:00,59.9,50.0,30.18,ESE,120,0.0,0.0,71,0.00,,,0.00,weatherlink.com 1.10,2013-10-09 00:58:00,
2013-10-08 21:13:00,59.7,50.0,30.18,NE,49,0.0,0.0,71,0.00,,,0.00,weatherlink.com 1.10,2013-10-09 01:13:00,
2013-10-08 21:28:00,59.3,50.0,30.18,ENE,65,0.0,0.0,72,0.00,,,0.00,weatherlink.com 1.10,2013-10-09 01:28:00,
2013-10-08 21:43:00,58.9,50.0,30.19,ESE,117,0.0,0.0,72,0.00,,,0.00,weatherlink.com 1.10,2013-10-09 01:43:00,
2013-10-08 21:58:00,58.3,50.0,30.19,ESE,117,0.0,0.0,73,0.00,,,0.00,weatherlink.com 1.10,2013-10-09 01:58:00,
2013-10-08 22:13:00,57.8,50.0,30.19,ESE,119,0.0,0.0,74,0.00,,,0.00,weatherlink.com 1.10,2013-10-09 02:13:00,
2013-10-08 22:28:00,57.3,49.0,30.20,ESE,117,0.0,0.0,75,0.00,,,0.00,weatherlink.com 1.10,2013-10-09 02:28:00,
2013-10-08 22:43:00,56.8,50.0,30.20,ESE,117,0.0,0.0,77,0.00,,,0.00,weatherlink.com 1.10,2013-10-09 02:43:00,
2013-10-08 22:58:00,56.3,49.0,30.20,ESE,117,0.0,0.0,77,0.00,,,0.00,weatherlink.com 1.10,2013-10-09 02:58:00,
2013-10-08 23:13:00,55.8,49.0,30.20,ESE,117,0.0,0.0,78,0.00,,,0.00,weatherlink.com 1.10,2013-10-09 03:13:00,
2013-10-08 23:28:00,55.3,49.0,30.20,ESE,117,0.0,0.0,79,0.00,,,0.00,weatherlink.com 1.10,2013-10-09 03:28:00,
2013-10-08 23:43:00,54.9,49.0,30.20,ESE,117,0.0,0.0,80,0.00,,,0.00,weatherlink.com 1.10,2013-10-09 03:43:00,
2013-10-08 23:58:00,54.4,49.0,30.20,ESE,118,0.0,0.0,81,0.00,,,0.00,weatherlink.com 1.10,2013-10-09 03:58:00,